www.pogodaiklimat.ru

Погода и климат >> Архив погоды >> Австралия >> Западная Австралия >> Уорбертон


ПОГОДА в Уорбертоне

  • Прогноз погоды в Уорбертоне
  • Монитор погоды в Уорбертоне

АРХИВ ПОГОДЫ в Уорбертоне

Время (UTC), дата Ветер
(напр.,м/с)
 
Видим.   Явления Облачность Т
(С)
Тd
(С)
f
(%)
Тe
(С)
Тes
(С)
Комфортность P
(гПа)
Po
(гПа)
Тmin
(С)
Tmax
(С)
R
(мм)
R24
(мм)
S
(см)
10 12.08 ЮВ 3 н/о н/о +17.7 -1.5 27 +18 +18 1023.3 969.5
12 12.08 ЮВ 3 н/о н/о +14.2 -1.8 33 +14 +14 1024.1 970.3
13 12.08 ЮВ 4 н/о н/о +13.7 -1.1 36 +13 +13 1024.1 970.3 +22.2
15 12.08 В 4 н/о н/о +13.9 -0.5 37 +13 +13 1023.5 969.7
16 12.08 В 5 н/о н/о +14.4 +0.6 39 +13 +13 1023.4 969.6
18 12.08 ЮВ 3 н/о н/о +12.3 +0.4 44 +11 +11 1022.8 969.1
19 12.08 Ю 3 н/о н/о +11.9 +0.7 46 +11 +11 1022.7 969.0
21 12.08 В 3 н/о н/о +12.2 0.0 43 +11 +11 1023.1 969.3
22 12.08 ЮВ 2 н/о н/о +10.0 -0.5 48 +9 +9 1023.6 969.8
00 13.08 С 4 н/о н/о +15.1 -0.2 35 +14 +14 1024.7 970.9
01 13.08 С 5 н/о н/о +19.1 +0.2 28 +19 +19 1024.5 970.7 +9.5
03 13.08 С 3 н/о н/о +21.8 -2.1 20 +21 +21 комфорт 1022.6 968.9
04 13.08 СЗ 4 н/о н/о +22.3 -3.1 18 +21 +21 комфорт 1021.6 967.9
09 13.08 С 3 н/о н/о +22.8 -5.2 15 +21 +21 комфорт 1020.0 966.4
10 13.08 С 3 н/о н/о +19.9 -5.8 17 +20 +20 1020.6 967.0
12 13.08 С 3 н/о н/о +15.4 -5.6 23 +15 +15 1021.6 967.9
13 13.08 СВ 3 н/о н/о +14.1 -5.6 25 +13 +13 1021.7 968.0 +24.8
15 13.08 СВ 3 н/о н/о +13.9 -4.8 27 +13 +13 1021.3 967.6
16 13.08 СВ 4 н/о н/о +13.8 -4.8 27 +13 +13 1020.8 967.2
18 13.08 С 4 н/о н/о +13.3 -4.8 28 +12 +12 1020.3 966.7
19 13.08 СВ 3 н/о н/о +13.3 -4.8 28 +12 +12 1020.0 966.4
21 13.08 С 5 н/о н/о +13.0 -4.1 30 +12 +12 1020.0 966.4
22 13.08 С 6 н/о н/о +13.9 -3.8 29 +12 +12 1020.6 967.0
00 14.08 С 8 н/о н/о +18.8 -3.3 22 +18 +18 1020.9 967.3
01 14.08 С 9 н/о н/о +21.2 -4.0 18 +20 +20 1021.3 967.6 +11.9
03 14.08 С 9 н/о н/о +24.6 -4.6 14 +22 +22 комфорт 1019.8 966.2
04 14.08 С 8 н/о н/о +25.8 -4.7 13 +23 +23 комфорт 1018.5 965.0
06 14.08 С 6 н/о н/о +26.7 -5.0 12 +24 +24 комфорт 1016.8 963.4
07 14.08 С 6 н/о н/о +26.8 -4.9 12 +24 +24 комфорт 1016.6 963.2
09 14.08 СЗ 6 н/о н/о +24.9 -4.4 14 +23 +23 комфорт 1016.6 963.2
10 14.08 С 3 н/о н/о +21.9 -5.0 16 +21 +21 комфорт 1016.9 963.5
12 14.08 С 4 н/о н/о +19.4 -4.8 19 +19 +19 1017.7 964.2
13 14.08 С 3 н/о н/о +17.8 -5.4 20 +18 +18 1018.1 964.6 +27.7
15 14.08 С 4 н/о н/о +17.9 -5.3 20 +18 +18 1018.0 964.5
16 14.08 С 5 н/о н/о +19.2 -5.7 18 +19 +19 1017.8 964.3
18 14.08 С 6 н/о н/о +19.6 -7.7 15 +19 +19 1016.6 963.2
19 14.08 С 6 н/о н/о +19.1 -8.1 15 +18 +18 1016.4 963.0
21 14.08 С 4 н/о н/о +16.3 -7.3 19 +16 +16 1018.4 964.9
22 14.08 С 4 н/о н/о +16.0 -7.6 19 +16 +16 1018.6 965.1
00 15.08 С 7 н/о н/о +20.3 -9.0 13 +19 +19 1019.4 965.8
01 15.08 С 7 н/о н/о +21.5 -9.1 12 +20 +20 1019.5 965.9 +16.0
03 15.08 З 6 н/о н/о +24.1 -6.0 13 +22 +22 комфорт 1018.5 965.0
04 15.08 З 5 н/о н/о +23.7 -2.0 18 +22 +22 комфорт 1017.8 964.3
06 15.08 З 3 н/о н/о +24.0 +5.4 30 +24 +24 комфорт 1016.4 963.0
07 15.08 З 4 н/о н/о +23.5 +6.3 33 +24 +24 комфорт 1016.6 963.2
09 15.08 ЮЗ 7 н/о н/о +19.4 +10.4 56 +20 +20 1017.3 963.8
10 15.08 ЮЗ 7 н/о н/о +17.9 +12.1 69 +17 +17 1018.0 964.5
12 15.08 ЮЗ 6 н/о н/о +14.5 +10.5 77 +13 +13 1020.5 966.9
13 15.08 Ю 4 н/о н/о +14.1 +10.3 78 +13 +13 1019.9 966.3 +25.1
15 15.08 ЮВ 3 н/о н/о +14.8 +9.8 72 +14 +14 1019.7 966.1
16 15.08 Ю 2 н/о н/о +14.8 +9.2 69 +15 +15 1020.5 966.9
18 15.08 З 3 н/о н/о +13.0 +11.4 90 +12 +12 1021.5 967.8
19 15.08 ЮВ 5 н/о в посл. час дождь {туман} н/о +12.2 +11.4 95 +10 +10 1019.3 965.7
21 15.08 ЮВ 4 н/о н/о +11.9 +11.6 98 +10 +10 1020.3 966.7
22 15.08 В 4 н/о {туман} н/о +12.1 +11.5 96 +10 +10 1020.0 966.4
00 16.08 В 5 н/о н/о +12.5 +11.2 92 +10 +10 1020.2 966.6
01 16.08 В 2 н/о {туман} н/о +14.1 +10.3 78 +14 +14 1020.8 967.2 +11.8
03 16.08 В 2 н/о н/о +16.4 +8.9 61 +17 +17 1020.3 966.7
04 16.08 З 1 н/о н/о +17.6 +8.7 56 +19 +19 1019.8 966.2
06 16.08 З 3 н/о н/о +17.2 +8.6 57 +17 +17 1018.8 965.3
07 16.08 З 4 н/о {туман} н/о +18.1 +8.4 53 +18 +18 1018.1 964.6
09 16.08 Ю 2 н/о н/о +17.4 +9.1 58 +18 +18 1017.8 964.3
10 16.08 ЮЗ 2 н/о н/о +15.6 +9.7 68 +16 +16 1018.3 964.8
12 16.08 Ю 2 н/о н/о +11.7 +10.9 95 +11 +11 1018.9 965.4
13 16.08 штиль 0 н/о н/о +10.3 +10.0 98 +9 +9 1019.3 965.7 +18.9
15 16.08 штиль 0 н/о н/о +8.9 +8.8 99 +8 +8 1018.8 965.3
16 16.08 штиль 0 н/о н/о +7.9 +7.8 99 +7 +7 1018.8 965.3
18 16.08 С 2 н/о н/о +6.4 +6.3 99 +4 +4 1017.9 964.4
19 16.08 штиль 0 н/о н/о +5.7 +5.6 99 +5 +5 1017.6 964.1
21 16.08 С 2 н/о н/о +5.2 +5.1 99 +2 +2 1017.5 964.0
22 16.08 штиль 0 н/о н/о +4.5 +4.4 99 +3 +3 1017.9 964.4
00 17.08 СЗ 2 н/о н/о +11.7 +8.2 79 +11 +11 1019.6 966.0
01 17.08 СЗ 2 н/о н/о +16.3 +6.4 52 +16 +16 1019.5 965.9 +4.2
03 17.08 ЮЗ 7 н/о н/о +20.6 +3.3 32 +21 +21 комфорт 1018.4 964.9
04 17.08 З 7 н/о н/о +21.1 +3.8 32 +21 +21 комфорт 1017.8 964.3
06 17.08 ЮЗ 6 н/о н/о +21.2 +1.5 27 +21 +21 комфорт 1017.0 963.6
07 17.08 З 6 н/о н/о +21.3 +1.0 26 +21 +21 комфорт 1017.4 963.9
09 17.08 З 6 н/о н/о +19.7 -0.3 26 +19 +19 1018.6 965.1
10 17.08 З 4 н/о н/о +18.0 +0.2 30 +18 +18 1019.5 965.9
12 17.08 ЮЗ 5 н/о н/о +15.9 -0.3 33 +15 +15 1021.5 967.8
13 17.08 ЮЗ 4 н/о н/о +13.7 -1.5 35 +13 +13 1022.3 968.6 +22.2
15 17.08 Ю 4 н/о н/о +10.8 -1.3 43 +9 +9 1023.4 969.6
16 17.08 Ю 4 н/о н/о +9.7 -1.1 47 +8 +8 1023.9 970.1
18 17.08 Ю 3 н/о н/о +6.8 -0.6 59 +5 +5 1024.3 970.5
19 17.08 Ю 2 н/о н/о +3.5 -1.3 71 +1 +1 1024.3 970.5
21 17.08 ЮВ 4 н/о н/о +6.7 -0.7 59 +4 +4 1025.5 971.6
22 17.08 ЮВ 4 н/о н/о +6.4 +0.1 64 +3 +3 1026.3 972.4
00 18.08 ЮВ 6 н/о н/о +9.9 +0.5 52 +7 +7 1027.7 973.7
01 18.08 Ю 7 н/о н/о +11.4 -0.7 43 +9 +9 1028.3 974.3 +3.4
03 18.08 Ю 7 н/о н/о +14.3 -2.6 31 +12 +12 1027.8 973.8
04 18.08 Ю 6 н/о н/о +16.4 -2.1 28 +15 +15 1026.9 972.9
06 18.08 Ю 8 н/о н/о +16.1 -2.9 27 +15 +15 1025.9 972.0
07 18.08 ЮВ 7 н/о н/о +16.8 -2.8 26 +16 +16 1025.6 971.7
09 18.08 ЮВ 7 н/о н/о +15.6 -1.9 30 +14 +14 1026.4 972.5
10 18.08 Ю 5 н/о н/о +14.3 -1.3 34 +13 +13 1027.0 973.0
12 18.08 Ю 4 н/о н/о +11.7 -1.4 40 +10 +10 1028.9 974.8
13 18.08 ЮВ 5 н/о н/о +10.9 -2.1 40 +9 +9 1029.1 975.0 +17.8
15 18.08 ЮВ 6 н/о н/о +10.2 -0.3 48 +7 +7 1029.2 975.1
16 18.08 ЮВ 4 н/о н/о +9.5 -0.1 51 +7 +7 1029.6 975.5
18 18.08 ЮВ 4 н/о н/о +7.8 -0.4 56 +5 +5 1029.7 975.6
19 18.08 ЮВ 6 н/о н/о +7.6 -0.6 56 +4 +4 1030.0 975.9
21 18.08 ЮВ 5 н/о н/о +6.1 -0.6 62 +2 +2 1031.4 977.2
22 18.08 ЮВ 5 н/о н/о +5.6 -0.7 64 +2 +2 1032.0 977.8
00 19.08 В 9 н/о н/о +8.5 +0.5 57 +4 +4 1033.4 979.1
01 19.08 ЮВ 9 н/о н/о +10.2 -0.9 46 +6 +6 1033.5 979.2 +5.6
03 19.08 ЮВ 7 н/о н/о +13.4 -1.0 37 +11 +11 1032.6 978.3
06 19.08 ЮВ 8 н/о н/о +17.1 -2.0 27 +16 +16 1029.6 975.5
07 19.08 ЮВ 7 н/о н/о +17.5 -1.7 27 +17 +17 1029.4 975.3
09 19.08 ЮВ 7 н/о н/о +16.1 -1.5 30 +15 +15 1030.1 976.0

 

Местоположение метеостанции Уорбертон (Западная Австралия, Австралия): широта -26.13 долгота 126.58 высота над уровнем моря 460 м.

В архиве по умолчанию представлена погода в Уорбертоне за последнюю неделю. Архивные данные за месяц целиком и за предыдущие месяцы, начиная с января 2011 года, Вы можете получить, выбрав интересующий диапазон дат из раскрывающегося списка и нажав кнопку "Ввод!".


*Определитесь, кто Вы:
робот инопланетянин человек

Внимание! Время в таблицах - всемирное. Для получения местного времени необходимо прибавить поправку, которая равна 8 ч.

Смотрите также архив погоды в соседних городах и на ближайших метеорологических станциях:

Погода в Джайлсе (Западная Австралия, Австралия) (212 км)
Погода в Кинторе (Северная территория, Австралия) (425 км)
Погода в Юларе (Северная территория, Австралия) (453 км)
Погода в Лавертоне (Западная Австралия, Австралия) (496 км)
Погода в Форресте (Западная Австралия, Австралия) (544 км)
Погода в Эрнабелле (Южная Австралия, Австралия) (559 км)
Погода в Леонора аэропорту (Западная Австралия, Австралия) (602 км)
Погода в Леинстере (Западная Австралия, Австралия) (613 км)
Погода в Евкле (Западная Австралия, Австралия) (657 км)
Погода в Телфере (Западная Австралия, Австралия) (663 км)

Пояснения к столбцам:

Ветер - указаны скорость ветра в м/с - средняя за 10 мин, порывы в срок и между сроками (в фигурных скобках) и направление, откуда дует ветер: С - северный, СВ - северо-восточный, В - восточный, ЮВ - юго-восточный, Ю - южный, ЮЗ - юго-западный, З - западный, СЗ - северо-западный.
Видимость - горизонтальная дальность видимости в метрах или километрах. При видимости от 1 до 10 км при отсутствии осадков обычно наблюдается дымка, при ухудшении видимости до 1 км и менее - туман. В сухую погоду видимость может ухудшаться дымом, пылью или мглою.
Явления - указаны атмосферные явления, наблюдавшиеся в срок или в последний час перед сроком; фигурными скобками обозначены явления, наблюдавшиеся между сроками (за 1-3 часа до срока); квадратными скобками обозначены град или гололедные отложения с указанием их диаметра в мм.
Облачность - указаны через наклонную черту общая и нижняя облачность в баллах и высота нижней границы облаков в метрах; квадратными скобками обозначены формы облаков: Ci - перистые, Cs - перисто-слоистые, Cc - перисто-кучевые, Ac - высококучевые, As - высокослоистые, Sc - слоисто-кучевые, Ns - слоисто-дождевые, Cu - кучевые, Cb - кучево-дождевые. Подробнее классификацию облаков см. в Атласе облаков (PDF).
T - Температура воздуха - температура, измеренная на высоте 2 м над землей.
Td - Температура точки росы - температура, при понижении до которой содержащийся в воздухе водяной пар достигнет насыщения.
f - Относительная влажность воздуха - влажноcть воздуха, измеренная на высоте 2 м над землей.
Te - Эффективная температура - температура, которую ощущает одетый по сезону человек в тени. Характеристика душности погоды. При расчете учитывается влияние влажности воздуха и скорости ветра на теплоощущения человека.
Tes - Эффективная температура на солнце - температура, которую ощущает человек, с поправкой на солнечный нагрев. Характеристика знойности погоды. Зависит от высоты солнца над горизонтом, облачности и скорости ветра. Ночью, в пасмурную погоду, а также при ветре 12 м/с и более поправка равна нулю.
P - Атмосферное давление - приведенное к уровню моря атмосферное давление.
Po - Атмосферное давление - измеренное на уровне метеостанции атмосферное давление.
Tmin - Минимальная температура - минимум температуры воздуха на высоте 2 м над землей.
Tmax - Максимальная температура - максимум температуры воздуха на высоте 2 м над землей.
R - Количество осадков - Количество выпавших осадков за период времени, мм. При наведении курсора мыши на число - период времени, за который выпало указанное количество осадков.
R24 - Количество осадков - Количество выпавших осадков за 24 часа, мм.
S - Снежный покров - Высота снежного покрова, см. При наведении курсора мыши на число - состояние снежного покрова и степень покрытия местности в баллах.